TimeCST,TemperatureF,Dew PointF,Humidity,Sea Level PressureIn,VisibilityMPH,Wind Direction,Wind SpeedMPH,Gust SpeedMPH,PrecipitationIn,Events,Conditions,WindDirDegrees,DateUTC
12:13 AM,30.2,24.8,80,30.12,10.0,East,10.4,-,N/A,,Overcast,90,2012-11-10 06:13:00
12:32 AM,30.2,24.8,80,30.12,10.0,East,11.5,-,N/A,,Overcast,100,2012-11-10 06:32:00
12:53 AM,28.4,24.8,86,30.12,10.0,ESE,11.5,18.4,N/A,,Overcast,110,2012-11-10 06:53:00
1:13 AM,28.4,23.0,80,30.09,10.0,East,10.4,17.3,N/A,,Overcast,90,2012-11-10 07:13:00
1:32 AM,28.4,23.0,80,30.08,10.0,East,11.5,19.6,N/A,,Overcast,100,2012-11-10 07:32:00
1:53 AM,28.4,21.2,74,30.09,10.0,East,8.1,-,N/A,,Overcast,90,2012-11-10 07:53:00
2:13 AM,28.4,21.2,74,30.09,10.0,East,9.2,-,N/A,,Overcast,100,2012-11-10 08:13:00
2:32 AM,28.4,23.0,80,30.08,10.0,East,9.2,-,N/A,,Overcast,90,2012-11-10 08:32:00
2:53 AM,28.4,23.0,80,30.06,10.0,East,9.2,-,N/A,,Overcast,90,2012-11-10 08:53:00
3:13 AM,28.4,24.8,86,30.04,10.0,East,10.4,19.6,N/A,,Overcast,80,2012-11-10 09:13:00
3:32 AM,28.4,24.8,86,30.01,10.0,ENE,15.0,20.7,N/A,Snow,Light Snow,70,2012-11-10 09:32:00
3:53 AM,28.4,24.8,86,30.02,7.0,East,11.5,16.1,N/A,,Overcast,90,2012-11-10 09:53:00
4:13 AM,28.4,26.6,93,30.01,7.0,East,8.1,-,N/A,Snow,Light Snow,80,2012-11-10 10:13:00
4:32 AM,28.4,26.6,93,30.01,10.0,East,10.4,16.1,N/A,Snow,Light Snow,80,2012-11-10 10:32:00
4:53 AM,30.2,26.6,86,29.99,10.0,East,12.7,19.6,N/A,,Overcast,90,2012-11-10 10:53:00
5:13 AM,30.2,26.6,86,29.99,7.0,East,6.9,16.1,N/A,,Overcast,90,2012-11-10 11:13:00
5:32 AM,30.2,28.4,93,29.99,10.0,East,10.4,18.4,N/A,,Overcast,90,2012-11-10 11:32:00
5:53 AM,30.2,28.4,93,29.98,10.0,East,11.5,17.3,N/A,Snow,Light Snow,90,2012-11-10 11:53:00
6:13 AM,30.2,28.4,93,29.97,2.5,East,9.2,16.1,N/A,Snow,Light Snow,80,2012-11-10 12:13:00
6:32 AM,30.2,28.4,93,29.96,4.0,East,8.1,-,0.01,Snow,Light Snow,80,2012-11-10 12:32:00
6:53 AM,30.2,28.4,93,29.95,3.0,East,9.2,17.3,0.01,Snow,Light Snow,90,2012-11-10 12:53:00
7:12 AM,30.2,28.4,93,29.94,5.0,East,8.1,-,N/A,Snow,Light Snow,80,2012-11-10 13:12:00
7:33 AM,30.2,28.4,93,29.95,10.0,East,6.9,-,N/A,,Overcast,90,2012-11-10 13:33:00
7:53 AM,32.0,30.2,93,29.94,10.0,East,17.3,23.0,0.01,,Overcast,100,2012-11-10 13:53:00
8:12 AM,32.0,30.2,93,29.93,7.0,East,15.0,24.2,N/A,,Overcast,100,2012-11-10 14:12:00
8:33 AM,32.0,30.2,93,29.88,5.0,East,13.8,21.9,N/A,,Overcast,80,2012-11-10 14:33:00
8:53 AM,33.8,30.2,87,29.90,7.0,East,8.1,18.4,N/A,,Overcast,80,2012-11-10 14:53:00
9:12 AM,33.8,32.0,93,29.89,4.0,East,13.8,23.0,N/A,,Overcast,100,2012-11-10 15:12:00
9:33 AM,33.8,32.0,93,29.88,7.0,East,11.5,21.9,N/A,,Overcast,90,2012-11-10 15:33:00
9:53 AM,33.8,32.0,93,29.87,2.5,East,12.7,23.0,0.01,Rain,Rain,100,2012-11-10 15:53:00
10:12 AM,33.8,32.0,93,29.84,1.5,East,15.0,21.9,0.05,Rain,Rain,90,2012-11-10 16:12:00
10:33 AM,33.8,33.8,100,29.84,10.0,East,10.4,20.7,0.06,Rain,Light Rain,100,2012-11-10 16:33:00
10:53 AM,33.8,33.8,100,29.81,10.0,East,15.0,23.0,0.06,,Overcast,100,2012-11-10 16:53:00
11:12 AM,33.8,33.8,100,29.81,7.0,East,12.7,23.0,N/A,,Overcast,100,2012-11-10 17:12:00
11:33 AM,33.8,33.8,100,29.77,5.0,East,18.4,24.2,N/A,Snow,Light Snow,100,2012-11-10 17:33:00
11:53 AM,35.6,33.8,93,29.77,7.0,ESE,15.0,24.2,N/A,Rain,Light Rain,110,2012-11-10 17:53:00
12:13 PM,35.6,33.8,93,29.75,10.0,East,13.8,23.0,0.01,Rain-Thunderstorm,Light Thunderstorms and Rain,100,2012-11-10 18:13:00
12:33 PM,35.6,33.8,93,29.75,10.0,East,10.4,16.1,0.01,Rain,Light Rain,90,2012-11-10 18:33:00
12:53 PM,35.6,33.8,93,29.75,7.0,Calm,Calm,-,0.01,Rain,Light Rain,0,2012-11-10 18:53:00
1:12 PM,35.6,33.8,93,29.77,10.0,NE,3.5,-,0.01,Rain-Thunderstorm,Light Thunderstorms and Rain,50,2012-11-10 19:12:00
1:33 PM,35.6,33.8,93,29.75,7.0,ENE,5.8,-,0.05,Rain,Light Rain,60,2012-11-10 19:33:00
1:52 PM,35.6,35.6,100,29.75,5.0,East,8.1,-,0.05,Rain,Rain,80,2012-11-10 19:52:00
2:13 PM,35.6,35.6,100,29.72,4.0,East,10.4,-,N/A,Rain,Light Rain,90,2012-11-10 20:13:00
2:33 PM,35.6,35.6,100,29.71,4.0,East,9.2,-,N/A,,Overcast,100,2012-11-10 20:33:00
2:52 PM,37.4,35.6,93,29.70,5.0,East,13.8,19.6,N/A,,Overcast,100,2012-11-10 20:52:00
3:13 PM,37.4,35.6,93,29.69,7.0,ESE,12.7,23.0,N/A,,Overcast,110,2012-11-10 21:13:00
3:33 PM,37.4,35.6,93,29.68,7.0,ESE,15.0,21.9,N/A,,Overcast,110,2012-11-10 21:33:00
3:52 PM,37.4,35.6,93,29.66,7.0,ESE,17.3,23.0,N/A,,Overcast,110,2012-11-10 21:52:00
4:13 PM,37.4,35.6,93,29.65,10.0,ESE,18.4,24.2,N/A,,Overcast,110,2012-11-10 22:13:00
4:32 PM,37.4,35.6,93,29.64,10.0,ESE,16.1,23.0,N/A,,Overcast,110,2012-11-10 22:32:00
4:53 PM,37.4,35.6,93,29.65,10.0,ESE,15.0,21.9,N/A,,Overcast,110,2012-11-10 22:53:00
5:13 PM,39.2,37.4,93,29.65,10.0,ESE,10.4,16.1,N/A,,Overcast,110,2012-11-10 23:13:00
5:32 PM,39.2,37.4,93,29.66,10.0,ESE,10.4,17.3,N/A,,Overcast,110,2012-11-10 23:32:00
5:53 PM,39.2,37.4,93,29.65,10.0,ESE,11.5,17.3,N/A,,Overcast,110,2012-11-10 23:53:00
6:13 PM,39.2,37.4,93,29.65,10.0,ESE,6.9,-,N/A,,Overcast,110,2012-11-11 00:13:00
6:32 PM,39.2,37.4,93,29.64,10.0,ESE,10.4,16.1,N/A,,Overcast,110,2012-11-11 00:32:00
6:53 PM,39.2,37.4,93,29.63,10.0,ESE,10.4,17.3,N/A,,Overcast,110,2012-11-11 00:53:00
7:13 PM,39.2,37.4,93,29.63,10.0,East,9.2,16.1,N/A,,Overcast,100,2012-11-11 01:13:00
7:32 PM,39.2,37.4,93,29.61,10.0,East,11.5,18.4,N/A,,Overcast,100,2012-11-11 01:32:00
7:53 PM,39.2,37.4,93,29.59,10.0,East,10.4,16.1,N/A,,Overcast,100,2012-11-11 01:53:00
8:13 PM,39.2,37.4,93,29.59,10.0,East,10.4,-,N/A,,Overcast,100,2012-11-11 02:13:00
8:32 PM,39.2,39.2,100,29.58,10.0,East,8.1,-,N/A,,Overcast,100,2012-11-11 02:32:00
8:53 PM,41.0,39.2,93,29.57,10.0,East,9.2,-,N/A,,Overcast,100,2012-11-11 02:53:00
9:13 PM,41.0,39.2,93,29.56,10.0,ESE,8.1,-,N/A,,Overcast,110,2012-11-11 03:13:00
9:32 PM,41.0,39.2,93,29.55,7.0,East,9.2,-,N/A,,Overcast,100,2012-11-11 03:32:00
9:53 PM,41.0,39.2,93,29.55,5.0,ESE,9.2,-,N/A,,Overcast,110,2012-11-11 03:53:00
10:13 PM,42.8,39.2,87,29.52,5.0,East,9.2,-,N/A,,Overcast,100,2012-11-11 04:13:00
10:32 PM,42.8,39.2,87,29.52,5.0,East,6.9,-,N/A,,Overcast,100,2012-11-11 04:32:00
10:53 PM,42.8,41.0,93,29.51,5.0,ESE,9.2,-,N/A,,Overcast,110,2012-11-11 04:53:00
11:13 PM,42.8,41.0,93,29.49,5.0,ESE,11.5,-,N/A,,Overcast,110,2012-11-11 05:13:00
11:32 PM,42.8,41.0,93,29.47,5.0,ESE,10.4,-,N/A,,Overcast,120,2012-11-11 05:32:00
11:53 PM,42.8,42.8,100,29.47,4.0,ESE,10.4,-,N/A,Thunderstorm,Unknown,120,2012-11-11 05:53:00